| time (UTC) | temp F | wind direction | speed MPH | gust MPH | rain 1hr in | rain 24hr in | rain mn in | humidity % | barometer mb |
| 20260904190431 | 94 | 152 | 0.0 | 7.0 | 0.00 | 0.00 | 0.00 | 43 | 1013.3 |
| 20260904185918 | 94 | 197 | 0.0 | 0.0 | 0.00 | 0.00 | 0.00 | 43 | 1013.3 |
| 20260904185405 | 93 | 197 | 0.0 | 3.0 | 0.00 | 0.00 | 0.00 | 42 | 1013.3 |
| 20260904184852 | 93 | 204 | 3.0 | 10.0 | 0.00 | 0.00 | 0.00 | 45 | 1013.3 |
| 20260904184339 | 94 | 221 | 0.0 | 8.0 | 0.00 | 0.00 | 0.00 | 44 | 1013.4 |
| 20260904183826 | 94 | 165 | 0.0 | 0.0 | 0.00 | 0.00 | 0.00 | 43 | 1013.6 |
| 20260904183313 | 93 | 165 | 0.0 | 0.0 | 0.00 | 0.00 | 0.00 | 43 | 1013.8 |
| 20260904182800 | 92 | 165 | 0.0 | 0.0 | 0.00 | 0.00 | 0.00 | 44 | 1013.7 |
| 20260904182247 | 92 | 165 | 0.0 | 9.0 | 0.00 | 0.00 | 0.00 | 44 | 1013.7 |
| 20260904181734 | 92 | 190 | 0.0 | 8.0 | 0.00 | 0.00 | 0.00 | 44 | 1013.7 |
| 20260904181221 | 91 | 194 | 5.0 | 8.0 | 0.00 | 0.00 | 0.00 | 44 | 1013.7 |
| 20260904180708 | 92 | 218 | 2.0 | 5.0 | 0.00 | 0.00 | 0.00 | 44 | 1013.7 |
| 20260904180155 | 92 | 210 | 0.0 | 12.0 | 0.00 | 0.00 | 0.00 | 45 | 1013.8 |
| 20260904175642 | 92 | 172 | 0.0 | 11.0 | 0.00 | 0.00 | 0.00 | 47 | 1013.8 |
| 20260904175129 | 91 | 177 | 0.0 | 7.0 | 0.00 | 0.00 | 0.00 | 46 | 1013.8 |
| 20260904174616 | 91 | 138 | 1.0 | 8.0 | 0.00 | 0.00 | 0.00 | 47 | 1013.9 |
| 20260904174103 | 91 | 149 | 0.0 | 13.0 | 0.00 | 0.00 | 0.00 | 47 | 1014.0 |
| 20260904173550 | 91 | 180 | 0.0 | 8.0 | 0.00 | 0.00 | 0.00 | 47 | 1014.0 |
| 20260904173037 | 91 | 212 | 0.0 | 10.0 | 0.00 | 0.00 | 0.00 | 47 | 1014.1 |
| 20260904172524 | 91 | 211 | 0.0 | 8.0 | 0.00 | 0.00 | 0.00 | 48 | 1014.1 |
| 20260904172011 | 90 | 201 | 0.0 | 9.0 | 0.00 | 0.00 | 0.00 | 48 | 1014.1 |
| 20260904171458 | 90 | 183 | 1.0 | 11.0 | 0.00 | 0.00 | 0.00 | 50 | 1014.2 |
| 20260904170945 | 90 | 191 | 0.0 | 9.0 | 0.00 | 0.00 | 0.00 | 49 | 1014.3 |
| 20260904170432 | 89 | 158 | 0.0 | 7.0 | 0.00 | 0.00 | 0.00 | 50 | 1014.3 |
| 20260904165919 | 89 | 226 | 2.0 | 12.0 | 0.00 | 0.00 | 0.00 | 49 | 1014.4 |
| 20260904165406 | 89 | 264 | 0.0 | 8.0 | 0.00 | 0.00 | 0.00 | 52 | 1014.4 |
| 20260904164853 | 89 | 224 | 0.0 | 13.0 | 0.00 | 0.00 | 0.00 | 51 | 1014.5 |
| 20260904164340 | 89 | 233 | 0.0 | 8.0 | 0.00 | 0.00 | 0.00 | 52 | 1014.5 |
| 20260904163827 | 89 | 208 | 4.0 | 10.0 | 0.00 | 0.00 | 0.00 | 51 | 1014.5 |
| 20260904163314 | 89 | 225 | 8.0 | 11.0 | 0.00 | 0.00 | 0.00 | 49 | 1014.4 |
| 20260904162801 | 89 | 193 | 0.0 | 4.0 | 0.00 | 0.00 | 0.00 | 51 | 1014.5 |
| 20260904162248 | 88 | 210 | 0.0 | 2.0 | 0.00 | 0.00 | 0.00 | 52 | 1014.4 |
| 20260904161735 | 87 | 214 | 0.0 | 9.0 | 0.00 | 0.00 | 0.00 | 52 | 1014.4 |
| 20260904161222 | 88 | 208 | 2.0 | 10.0 | 0.00 | 0.00 | 0.00 | 52 | 1014.5 |
| 20260904160709 | 88 | 239 | 0.0 | 9.0 | 0.00 | 0.00 | 0.00 | 54 | 1014.5 |
| 20260904160156 | 87 | 176 | 0.0 | 7.0 | 0.00 | 0.00 | 0.00 | 54 | 1014.5 |
| 20260904155643 | 87 | 235 | 0.0 | 8.0 | 0.00 | 0.00 | 0.00 | 54 | 1014.6 |
| 20260904155130 | 87 | 226 | 4.0 | 11.0 | 0.00 | 0.00 | 0.00 | 56 | 1014.6 |
| 20260904154617 | 87 | 202 | 0.0 | 11.0 | 0.00 | 0.00 | 0.00 | 55 | 1014.5 |
| 20260904154104 | 86 | 267 | 0.0 | 5.0 | 0.00 | 0.00 | 0.00 | 57 | 1014.5 |
| 20260904153551 | 86 | 215 | 4.0 | 7.0 | 0.00 | 0.00 | 0.00 | 58 | 1014.6 |
| 20260904153038 | 86 | 197 | 0.0 | 11.0 | 0.00 | 0.00 | 0.00 | 58 | 1014.6 |
| 20260904152525 | 85 | 239 | 0.0 | 6.0 | 0.00 | 0.00 | 0.00 | 57 | 1014.6 |
| 20260904152012 | 85 | 194 | 0.0 | 10.0 | 0.00 | 0.00 | 0.00 | 58 | 1014.6 |
| 20260904151459 | 85 | 221 | 0.0 | 5.0 | 0.00 | 0.00 | 0.00 | 58 | 1014.5 |
| 20260904150946 | 85 | 221 | 3.0 | 10.0 | 0.00 | 0.00 | 0.00 | 59 | 1014.6 |
| 20260904150433 | 84 | 233 | 0.0 | 10.0 | 0.00 | 0.00 | 0.00 | 59 | 1014.5 |
| 20260904145920 | 84 | 188 | 0.0 | 8.0 | 0.00 | 0.00 | 0.00 | 61 | 1014.6 |
| 20260904145407 | 84 | 231 | 0.0 | 9.0 | 0.00 | 0.00 | 0.00 | 60 | 1014.5 |
| 20260904144854 | 84 | 224 | 0.0 | 9.0 | 0.00 | 0.00 | 0.00 | 62 | 1014.5 |
| 20260904144341 | 83 | 222 | 0.0 | 10.0 | 0.00 | 0.00 | 0.00 | 62 | 1014.5 |
| 20260904143828 | 83 | 183 | 3.0 | 10.0 | 0.00 | 0.00 | 0.00 | 62 | 1014.6 |
| 20260904143315 | 82 | 202 | 5.0 | 6.0 | 0.00 | 0.00 | 0.00 | 63 | 1014.5 |
| 20260904142802 | 83 | 208 | 0.0 | 7.0 | 0.00 | 0.00 | 0.00 | 63 | 1014.6 |
| 20260904142249 | 82 | 217 | 0.0 | 5.0 | 0.00 | 0.00 | 0.00 | 64 | 1014.5 |
| 20260904141736 | 82 | 239 | 0.0 | 8.0 | 0.00 | 0.00 | 0.00 | 64 | 1014.5 |
| 20260904141223 | 82 | 277 | 0.0 | 4.0 | 0.00 | 0.00 | 0.00 | 64 | 1014.5 |
| 20260904140710 | 82 | 210 | 0.0 | 9.0 | 0.00 | 0.00 | 0.00 | 64 | 1014.5 |
| 20260904140157 | 82 | 204 | 0.0 | 5.0 | 0.00 | 0.00 | 0.00 | 63 | 1014.4 |
| 20260904135644 | 82 | 262 | 2.0 | 7.0 | 0.00 | 0.00 | 0.00 | 63 | 1014.4 |
| 20260904135131 | 81 | 200 | 0.0 | 3.0 | 0.00 | 0.00 | 0.00 | 64 | 1014.4 |
| 20260904134618 | 81 | 225 | 0.0 | 11.0 | 0.00 | 0.00 | 0.00 | 65 | 1014.4 |
| 20260904134105 | 81 | 229 | 0.0 | 4.0 | 0.00 | 0.00 | 0.00 | 65 | 1014.4 |
| 20260904133552 | 81 | 250 | 0.0 | 7.0 | 0.00 | 0.00 | 0.00 | 65 | 1014.4 |
| 20260904133039 | 81 | 202 | 0.0 | 9.0 | 0.00 | 0.00 | 0.00 | 66 | 1014.3 |
| 20260904132526 | 80 | 222 | 2.0 | 5.0 | 0.00 | 0.00 | 0.00 | 67 | 1014.3 |
| 20260904132013 | 80 | 210 | 2.0 | 8.0 | 0.00 | 0.00 | 0.00 | 66 | 1014.3 |
| 20260904131500 | 80 | 187 | 3.0 | 7.0 | 0.00 | 0.00 | 0.00 | 66 | 1014.3 |
| 20260904130947 | 80 | 187 | 0.0 | 3.0 | 0.00 | 0.00 | 0.00 | 67 | 1014.3 |
| 20260904130434 | 80 | 233 | 0.0 | 4.0 | 0.00 | 0.00 | 0.00 | 68 | 1014.2 |
| 20260904125921 | 80 | 214 | 0.0 | 3.0 | 0.00 | 0.00 | 0.00 | 69 | 1014.2 |
| 20260904125408 | 79 | 202 | 0.0 | 7.0 | 0.00 | 0.00 | 0.00 | 69 | 1014.1 |
| 20260904124855 | 79 | 195 | 0.0 | 4.0 | 0.00 | 0.00 | 0.00 | 70 | 1014.1 |
| 20260904124342 | 79 | 212 | 0.0 | 6.0 | 0.00 | 0.00 | 0.00 | 70 | 1013.9 |
| 20260904123829 | 78 | 158 | 0.0 | 4.0 | 0.00 | 0.00 | 0.00 | 70 | 1014.0 |
| 20260904123316 | 79 | 221 | 0.0 | 6.0 | 0.00 | 0.00 | 0.00 | 71 | 1013.9 |
| 20260904122803 | 78 | 217 | 0.0 | 7.0 | 0.00 | 0.00 | 0.00 | 71 | 1013.8 |
| 20260904122250 | 78 | 194 | 0.0 | 3.0 | 0.00 | 0.00 | 0.00 | 71 | 1013.8 |
| 20260904121737 | 78 | 200 | 0.0 | 2.0 | 0.00 | 0.00 | 0.00 | 71 | 1013.7 |
| 20260904121224 | 78 | 194 | 2.0 | 7.0 | 0.00 | 0.00 | 0.00 | 71 | 1013.7 |
| 20260904120711 | 78 | 218 | 0.0 | 5.0 | 0.00 | 0.00 | 0.00 | 71 | 1013.6 |
| 20260904120158 | 79 | 207 | 0.0 | 5.0 | 0.00 | 0.00 | 0.00 | 70 | 1013.6 |
| 20260904115645 | 79 | 214 | 0.0 | 10.0 | 0.00 | 0.00 | 0.00 | 70 | 1013.6 |
| 20260904115132 | 79 | 173 | 0.0 | 2.0 | 0.00 | 0.00 | 0.00 | 70 | 1013.4 |
| 20260904114619 | 79 | 173 | 2.0 | 8.0 | 0.00 | 0.00 | 0.00 | 70 | 1013.3 |
| 20260904114106 | 78 | 200 | 0.0 | 6.0 | 0.00 | 0.00 | 0.00 | 70 | 1013.3 |
| 20260904113553 | 79 | 142 | 0.0 | 7.0 | 0.00 | 0.00 | 0.00 | 70 | 1013.2 |
| 20260904113040 | 79 | 146 | 0.0 | 3.0 | 0.00 | 0.00 | 0.00 | 70 | 1013.2 |
| 20260904112527 | 78 | 187 | 0.0 | 6.0 | 0.00 | 0.00 | 0.00 | 70 | 1013.2 |
| 20260904112014 | 78 | 210 | 0.0 | 3.0 | 0.00 | 0.00 | 0.00 | 70 | 1013.1 |
| 20260904111501 | 78 | 200 | 0.0 | 4.0 | 0.00 | 0.00 | 0.00 | 70 | 1013.1 |
| 20260904110948 | 78 | 197 | 0.0 | 3.0 | 0.00 | 0.00 | 0.00 | 70 | 1013.1 |
| 20260904110435 | 78 | 210 | 0.0 | 3.0 | 0.00 | 0.00 | 0.00 | 70 | 1013.0 |
| 20260904105922 | 78 | 217 | 1.0 | 3.0 | 0.00 | 0.00 | 0.00 | 70 | 1013.0 |
| 20260904105409 | 78 | 180 | 0.0 | 0.0 | 0.00 | 0.00 | 0.00 | 70 | 1013.0 |
| 20260904104856 | 78 | 180 | 0.0 | 7.0 | 0.00 | 0.00 | 0.00 | 70 | 1013.0 |
| 20260904104343 | 78 | 219 | 0.0 | 6.0 | 0.00 | 0.00 | 0.00 | 70 | 1013.0 |
| 20260904103830 | 78 | 215 | 5.0 | 7.0 | 0.00 | 0.00 | 0.00 | 70 | 1013.0 |
| 20260904103317 | 79 | 214 | 1.0 | 2.0 | 0.00 | 0.00 | 0.00 | 70 | 1013.0 |
| 20260904102804 | 79 | 163 | 0.0 | 4.0 | 0.00 | 0.00 | 0.00 | 69 | 1013.0 |
| 20260904102251 | 79 | 210 | 0.0 | 4.0 | 0.00 | 0.00 | 0.00 | 69 | 1012.9 |
| 20260904101738 | 79 | 149 | 0.0 | 4.0 | 0.00 | 0.00 | 0.00 | 69 | 1012.9 |
| 20260904101225 | 79 | 190 | 0.0 | 6.0 | 0.00 | 0.00 | 0.00 | 69 | 1012.9 |
| 20260904100712 | 79 | 172 | 0.0 | 4.0 | 0.00 | 0.00 | 0.00 | 68 | 1012.8 |
| 20260904100159 | 79 | 172 | 0.0 | 2.0 | 0.00 | 0.00 | 0.00 | 68 | 1012.8 |
| 20260904095646 | 79 | 181 | 0.0 | 6.0 | 0.00 | 0.00 | 0.00 | 68 | 1012.9 |
| 20260904095133 | 79 | 165 | 0.0 | 2.0 | 0.00 | 0.00 | 0.00 | 68 | 1012.8 |
| 20260904094620 | 80 | 170 | 0.0 | 4.0 | 0.00 | 0.00 | 0.00 | 67 | 1012.7 |
| 20260904094107 | 80 | 174 | 0.0 | 5.0 | 0.00 | 0.00 | 0.00 | 66 | 1012.7 |
| 20260904093554 | 80 | 158 | 0.0 | 0.0 | 0.00 | 0.00 | 0.00 | 65 | 1012.6 |
| 20260904093041 | 80 | 158 | 0.0 | 4.0 | 0.00 | 0.00 | 0.00 | 65 | 1012.6 |
| 20260904092528 | 80 | 200 | 0.0 | 2.0 | 0.00 | 0.00 | 0.00 | 67 | 1012.5 |
| 20260904092015 | 80 | 179 | 0.0 | 2.0 | 0.00 | 0.00 | 0.00 | 67 | 1012.5 |
| 20260904091502 | 80 | 180 | 0.0 | 4.0 | 0.00 | 0.00 | 0.00 | 66 | 1012.5 |
| 20260904090949 | 80 | 188 | 0.0 | 0.0 | 0.00 | 0.00 | 0.00 | 66 | 1012.5 |
| 20260904090436 | 80 | 188 | 0.0 | 0.0 | 0.00 | 0.00 | 0.00 | 66 | 1012.4 |
| 20260904085923 | 80 | 188 | 0.0 | 0.0 | 0.00 | 0.00 | 0.00 | 66 | 1012.3 |
| 20260904085410 | 80 | 188 | 0.0 | 5.0 | 0.00 | 0.00 | 0.00 | 66 | 1012.3 |
| 20260904084857 | 80 | 191 | 0.0 | 0.0 | 0.00 | 0.00 | 0.00 | 66 | 1012.2 |
| 20260904084344 | 80 | 191 | 0.0 | 2.0 | 0.00 | 0.00 | 0.00 | 65 | 1012.3 |
| 20260904083831 | 81 | 191 | 0.0 | 0.0 | 0.00 | 0.00 | 0.00 | 65 | 1012.2 |
| 20260904083318 | 80 | 191 | 0.0 | 4.0 | 0.00 | 0.00 | 0.00 | 65 | 1012.3 |
| 20260904082805 | 81 | 173 | 0.0 | 0.0 | 0.00 | 0.00 | 0.00 | 64 | 1012.3 |
| 20260904082252 | 81 | 173 | 0.0 | 4.0 | 0.00 | 0.00 | 0.00 | 65 | 1012.2 |
| 20260904081739 | 81 | 181 | 0.0 | 0.0 | 0.00 | 0.00 | 0.00 | 64 | 1012.1 |
| 20260904081226 | 81 | 181 | 0.0 | 0.0 | 0.00 | 0.00 | 0.00 | 64 | 1012.1 |
| 20260904080713 | 81 | 181 | 0.0 | 0.0 | 0.00 | 0.00 | 0.00 | 64 | 1012.1 |
| 20260904080200 | 81 | 97 | 0.0 | 3.0 | 0.00 | 0.00 | 0.00 | 63 | 1012.1 |
| 20260904075647 | 81 | 159 | 0.0 | 0.0 | 0.00 | 0.00 | 0.00 | 63 | 1012.0 |
| 20260904075134 | 81 | 159 | 0.0 | 0.0 | 0.00 | 0.00 | 0.00 | 63 | 1012.0 |
| 20260904074621 | 81 | 159 | 0.0 | 0.0 | 0.00 | 0.00 | 0.00 | 62 | 1012.0 |
| 20260904074108 | 82 | 159 | 0.0 | 0.0 | 0.00 | 0.00 | 0.00 | 62 | 1012.0 |
| 20260904073555 | 82 | 159 | 0.0 | 6.0 | 0.00 | 0.00 | 0.00 | 62 | 1012.0 |
| 20260904073042 | 82 | 235 | 0.0 | 0.0 | 0.00 | 0.00 | 0.00 | 61 | 1011.9 |
| 20260904072529 | 82 | 235 | 0.0 | 0.0 | 0.00 | 0.00 | 0.00 | 61 | 1012.0 |
| 20260904072016 | 82 | 235 | 0.0 | 0.0 | 0.00 | 0.00 | 0.00 | 61 | 1012.0 |
| 20260904071503 | 82 | 235 | 0.0 | 0.0 | 0.00 | 0.00 | 0.00 | 60 | 1012.1 |
| 20260904070950 | 83 | 235 | 0.0 | 0.0 | 0.00 | 0.00 | 0.00 | 59 | 1012.1 |
| 20260904070437 | 83 | 235 | 0.0 | 0.0 | 0.00 | 0.00 | 0.00 | 58 | 1012.1 |
| 20260904065924 | 83 | 235 | 0.0 | 0.0 | 0.00 | 0.00 | 0.00 | 58 | 1012.1 |
| 20260904065411 | 84 | 235 | 0.0 | 0.0 | 0.00 | 0.00 | 0.00 | 58 | 1012.1 |
| 20260904064858 | 84 | 235 | 0.0 | 0.0 | 0.00 | 0.00 | 0.00 | 57 | 1012.1 |
| 20260904064345 | 84 | 235 | 0.0 | 7.0 | 0.00 | 0.00 | 0.00 | 57 | 1012.2 |
| 20260904063832 | 84 | 221 | 2.0 | 4.0 | 0.00 | 0.00 | 0.00 | 56 | 1012.2 |
| 20260904063319 | 84 | 210 | 0.0 | 0.0 | 0.00 | 0.00 | 0.00 | 55 | 1012.2 |
| 20260904062806 | 85 | 210 | 0.0 | 9.0 | 0.00 | 0.00 | 0.00 | 55 | 1012.1 |
| 20260904062253 | 85 | 217 | 0.0 | 0.0 | 0.00 | 0.00 | 0.00 | 54 | 1012.2 |
| 20260904061740 | 85 | 217 | 0.0 | 2.0 | 0.00 | 0.00 | 0.00 | 53 | 1012.1 |
| 20260904061227 | 85 | 180 | 0.0 | 0.0 | 0.00 | 0.00 | 0.00 | 53 | 1012.1 |
| 20260904060714 | 85 | 180 | 0.0 | 3.0 | 0.00 | 0.00 | 0.00 | 53 | 1012.2 |
| 20260904060201 | 85 | 202 | 0.0 | 0.0 | 0.00 | 0.00 | 0.00 | 53 | 1012.2 |
| 20260904055648 | 85 | 202 | 0.0 | 3.0 | 0.00 | 0.00 | 0.00 | 52 | 1012.2 |
| 20260904055135 | 85 | 204 | 0.0 | 3.0 | 0.00 | 0.00 | 0.00 | 52 | 1012.1 |
| 20260904054622 | 86 | 221 | 0.0 | 7.0 | 0.00 | 0.00 | 0.00 | 51 | 1012.1 |
| 20260904054109 | 85 | 177 | 2.0 | 5.0 | 0.00 | 0.00 | 0.00 | 51 | 1012.0 |
| 20260904053556 | 85 | 200 | 0.0 | 3.0 | 0.00 | 0.00 | 0.00 | 51 | 1012.0 |
| 20260904053043 | 86 | 204 | 0.0 | 0.0 | 0.00 | 0.00 | 0.00 | 51 | 1012.0 |
| 20260904052530 | 85 | 204 | 0.0 | 0.0 | 0.00 | 0.00 | 0.00 | 50 | 1012.0 |
| 20260904052017 | 85 | 204 | 0.0 | 0.0 | 0.00 | 0.00 | 0.00 | 50 | 1011.9 |
| 20260904051504 | 85 | 204 | 0.0 | 3.0 | 0.00 | 0.00 | 0.00 | 50 | 1011.9 |
| 20260904050951 | 86 | 211 | 0.0 | 2.0 | 0.00 | 0.00 | 0.00 | 49 | 1011.9 |
| 20260904050438 | 86 | 184 | 0.0 | 1.0 | 0.00 | 0.00 | 0.00 | 49 | 1011.8 |
| 20260904045925 | 86 | 198 | 0.0 | 2.0 | 0.00 | 0.00 | 0.00 | 49 | 1011.9 |
| 20260904045412 | 86 | 198 | 0.0 | 3.0 | 0.00 | 0.00 | 0.00 | 49 | 1011.9 |
| 20260904044859 | 85 | 197 | 0.0 | 0.0 | 0.00 | 0.00 | 0.00 | 50 | 1011.9 |
| 20260904044346 | 85 | 197 | 0.0 | 6.0 | 0.00 | 0.00 | 0.00 | 50 | 1011.9 |
| 20260904043833 | 85 | 211 | 0.0 | 0.0 | 0.00 | 0.00 | 0.00 | 50 | 1011.8 |
| 20260904043320 | 86 | 211 | 0.0 | 0.0 | 0.00 | 0.00 | 0.00 | 50 | 1011.8 |
| 20260904042807 | 86 | 211 | 0.0 | 0.0 | 0.00 | 0.00 | 0.00 | 50 | 1011.8 |
| 20260904042254 | 86 | 211 | 0.0 | 0.0 | 0.00 | 0.00 | 0.00 | 50 | 1011.7 |
| 20260904041741 | 86 | 211 | 0.0 | 0.0 | 0.00 | 0.00 | 0.00 | 49 | 1011.7 |
| 20260904041228 | 87 | 211 | 0.0 | 2.0 | 0.00 | 0.00 | 0.00 | 49 | 1011.7 |
| 20260904040715 | 87 | 211 | 0.0 | 0.0 | 0.00 | 0.00 | 0.00 | 48 | 1011.8 |
| 20260904040202 | 87 | 211 | 0.0 | 0.0 | 0.00 | 0.00 | 0.00 | 49 | 1011.7 |
| 20260904035649 | 87 | 211 | 0.0 | 2.0 | 0.00 | 0.00 | 0.00 | 49 | 1011.7 |
| 20260904035136 | 87 | 128 | 0.0 | 0.0 | 0.00 | 0.00 | 0.00 | 49 | 1011.8 |
| 20260904034623 | 87 | 128 | 0.0 | 0.0 | 0.00 | 0.00 | 0.00 | 48 | 1011.7 |
| 20260904034110 | 87 | 128 | 0.0 | 0.0 | 0.00 | 0.00 | 0.00 | 48 | 1011.7 |
| 20260904033557 | 87 | 128 | 0.0 | 0.0 | 0.00 | 0.00 | 0.00 | 48 | 1011.7 |
| 20260904033044 | 87 | 128 | 1.0 | 1.0 | 0.00 | 0.00 | 0.00 | 47 | 1011.7 |
| 20260904032531 | 87 | 128 | 0.0 | 3.0 | 0.00 | 0.00 | 0.00 | 47 | 1011.7 |
| 20260904032018 | 87 | 105 | 0.0 | 4.0 | 0.00 | 0.00 | 0.00 | 48 | 1011.7 |
| 20260904031505 | 87 | 176 | 0.0 | 4.0 | 0.00 | 0.00 | 0.00 | 47 | 1011.6 |
| 20260904030952 | 87 | 179 | 0.0 | 3.0 | 0.00 | 0.00 | 0.00 | 48 | 1011.7 |
| 20260904030439 | 87 | 179 | 0.0 | 4.0 | 0.00 | 0.00 | 0.00 | 48 | 1011.6 |
| 20260904025926 | 87 | 124 | 0.0 | 5.0 | 0.00 | 0.00 | 0.00 | 47 | 1011.6 |
| 20260904025413 | 87 | 155 | 0.0 | 0.0 | 0.00 | 0.00 | 0.00 | 48 | 1011.6 |
| 20260904024900 | 87 | 155 | 0.0 | 0.0 | 0.00 | 0.00 | 0.00 | 48 | 1011.6 |
| 20260904024347 | 87 | 155 | 0.0 | 3.0 | 0.00 | 0.00 | 0.00 | 48 | 1011.6 |
| 20260904023834 | 87 | 172 | 0.0 | 6.0 | 0.00 | 0.00 | 0.00 | 48 | 1011.5 |
| 20260904023321 | 87 | 174 | 0.0 | 0.0 | 0.00 | 0.00 | 0.00 | 49 | 1011.5 |
| 20260904022808 | 87 | 174 | 0.0 | 0.0 | 0.00 | 0.00 | 0.00 | 49 | 1011.6 |
| 20260904022255 | 87 | 174 | 0.0 | 0.0 | 0.00 | 0.00 | 0.00 | 49 | 1011.6 |
| 20260904021742 | 87 | 174 | 0.0 | 0.0 | 0.00 | 0.00 | 0.00 | 49 | 1011.6 |
| 20260904021229 | 88 | 174 | 0.0 | 0.0 | 0.00 | 0.00 | 0.00 | 48 | 1011.6 |
| 20260904020716 | 88 | 174 | 0.0 | 2.0 | 0.00 | 0.00 | 0.00 | 48 | 1011.4 |
| 20260904020203 | 88 | 148 | 0.0 | 0.0 | 0.00 | 0.00 | 0.00 | 48 | 1011.4 |
| 20260904015650 | 88 | 148 | 0.0 | 2.0 | 0.00 | 0.00 | 0.00 | 47 | 1011.3 |
| 20260904015137 | 88 | 184 | 0.0 | 0.0 | 0.00 | 0.00 | 0.00 | 47 | 1011.3 |
| 20260904014624 | 88 | 184 | 0.0 | 0.0 | 0.00 | 0.00 | 0.00 | 47 | 1011.2 |
| 20260904014111 | 88 | 184 | 0.0 | 0.0 | 0.00 | 0.00 | 0.00 | 47 | 1011.1 |
| 20260904013558 | 89 | 184 | 0.0 | 0.0 | 0.00 | 0.00 | 0.00 | 46 | 1011.0 |
| 20260904013045 | 89 | 184 | 0.0 | 0.0 | 0.00 | 0.00 | 0.00 | 45 | 1010.9 |
| 20260904012532 | 90 | 184 | 0.0 | 0.0 | 0.00 | 0.00 | 0.00 | 44 | 1010.8 |
| 20260904012019 | 90 | 184 | 0.0 | 0.0 | 0.00 | 0.00 | 0.00 | 44 | 1010.8 |
| 20260904011506 | 90 | 184 | 0.0 | 0.0 | 0.00 | 0.00 | 0.00 | 43 | 1010.8 |
| 20260904010953 | 90 | 184 | 0.0 | 0.0 | 0.00 | 0.00 | 0.00 | 43 | 1010.6 |
| 20260904010440 | 91 | 184 | 0.0 | 0.0 | 0.00 | 0.00 | 0.00 | 43 | 1010.6 |
| 20260904005927 | 91 | 184 | 0.0 | 0.0 | 0.00 | 0.00 | 0.00 | 42 | 1010.5 |
| 20260904005414 | 91 | 184 | 0.0 | 0.0 | 0.00 | 0.00 | 0.00 | 42 | 1010.5 |
| 20260904004901 | 91 | 184 | 0.0 | 0.0 | 0.00 | 0.00 | 0.00 | 42 | 1010.4 |
| 20260904004348 | 91 | 184 | 0.0 | 0.0 | 0.00 | 0.00 | 0.00 | 41 | 1010.3 |
| 20260904003835 | 91 | 184 | 0.0 | 0.0 | 0.00 | 0.00 | 0.00 | 42 | 1010.4 |
| 20260904003322 | 91 | 184 | 0.0 | 0.0 | 0.00 | 0.00 | 0.00 | 41 | 1010.4 |
| 20260904002809 | 92 | 184 | 0.0 | 4.0 | 0.00 | 0.00 | 0.00 | 40 | 1010.5 |
| 20260904002256 | 92 | 143 | 0.0 | 0.0 | 0.00 | 0.00 | 0.00 | 40 | 1010.4 |
| 20260904001743 | 92 | 143 | 0.0 | 6.0 | 0.00 | 0.00 | 0.00 | 40 | 1010.4 |
| 20260904001230 | 92 | 139 | 0.0 | 0.0 | 0.00 | 0.00 | 0.00 | 39 | 1010.3 |
| 20260904000717 | 93 | 139 | 0.0 | 7.0 | 0.00 | 0.00 | 0.00 | 39 | 1010.3 |
| 20260904000204 | 93 | 111 | 4.0 | 12.0 | 0.00 | 0.00 | 0.00 | 38 | 1010.4 |
| 20260903235651 | 93 | 159 | 5.0 | 13.0 | 0.00 | 0.00 | 0.00 | 38 | 1010.3 |
| 20260903235138 | 93 | 172 | 5.0 | 11.0 | 0.00 | 0.00 | 0.00 | 38 | 1010.3 |
| 20260903234625 | 93 | 174 | 0.0 | 3.0 | 0.00 | 0.00 | 0.00 | 38 | 1010.3 |
| 20260903234112 | 93 | 205 | 0.0 | 7.0 | 0.00 | 0.00 | 0.00 | 38 | 1010.4 |
| 20260903233559 | 93 | 219 | 3.0 | 11.0 | 0.00 | 0.00 | 0.00 | 38 | 1010.3 |
| 20260903233046 | 94 | 180 | 1.0 | 12.0 | 0.00 | 0.00 | 0.00 | 37 | 1010.3 |
| 20260903232533 | 94 | 190 | 0.0 | 7.0 | 0.00 | 0.00 | 0.00 | 37 | 1010.4 |
| 20260903232020 | 94 | 194 | 0.0 | 4.0 | 0.00 | 0.00 | 0.00 | 37 | 1010.3 |
| 20260903231507 | 94 | 159 | 0.0 | 7.0 | 0.00 | 0.00 | 0.00 | 36 | 1010.4 |
| 20260903230954 | 94 | 225 | 0.0 | 0.0 | 0.00 | 0.00 | 0.00 | 37 | 1010.3 |
| 20260903230441 | 94 | 225 | 2.0 | 11.0 | 0.00 | 0.00 | 0.00 | 37 | 1010.4 |
| 20260903225928 | 94 | 162 | 3.0 | 11.0 | 0.00 | 0.00 | 0.00 | 37 | 1010.2 |
| 20260903225415 | 94 | 146 | 2.0 | 9.0 | 0.00 | 0.00 | 0.00 | 38 | 1010.3 |
| 20260903224902 | 94 | 221 | 1.0 | 13.0 | 0.00 | 0.00 | 0.00 | 36 | 1010.3 |
| 20260903224349 | 94 | 172 | 4.0 | 5.0 | 0.00 | 0.00 | 0.00 | 37 | 1010.3 |
| 20260903223836 | 94 | 105 | 0.0 | 11.0 | 0.00 | 0.00 | 0.00 | 37 | 1010.3 |
| 20260903223323 | 94 | 176 | 0.0 | 11.0 | 0.00 | 0.00 | 0.00 | 36 | 1010.2 |
| 20260903222810 | 94 | 156 | 0.0 | 2.0 | 0.00 | 0.00 | 0.00 | 36 | 1010.2 |
| 20260903222257 | 94 | 198 | 0.0 | 10.0 | 0.00 | 0.00 | 0.00 | 36 | 1010.2 |
| 20260903221744 | 95 | 207 | 9.0 | 13.0 | 0.00 | 0.00 | 0.00 | 38 | 1010.2 |
| 20260903221231 | 95 | 165 | 0.0 | 12.0 | 0.00 | 0.00 | 0.00 | 36 | 1010.3 |
| 20260903220718 | 95 | 214 | 0.0 | 10.0 | 0.00 | 0.00 | 0.00 | 35 | 1010.3 |
| 20260903220205 | 95 | 207 | 1.0 | 10.0 | 0.00 | 0.00 | 0.00 | 36 | 1010.3 |
| 20260903215652 | 95 | 231 | 4.0 | 8.0 | 0.00 | 0.00 | 0.00 | 37 | 1010.3 |
| 20260903215139 | 95 | 183 | 5.0 | 9.0 | 0.00 | 0.00 | 0.00 | 36 | 1010.4 |
| 20260903214626 | 95 | 181 | 6.0 | 14.0 | 0.00 | 0.00 | 0.00 | 36 | 1010.5 |
| 20260903214113 | 95 | 172 | 0.0 | 10.0 | 0.00 | 0.00 | 0.00 | 35 | 1010.5 |
| 20260903213600 | 95 | 229 | 0.0 | 6.0 | 0.00 | 0.00 | 0.00 | 35 | 1010.5 |
| 20260903213047 | 94 | 222 | 2.0 | 11.0 | 0.00 | 0.00 | 0.00 | 36 | 1010.6 |
| 20260903212534 | 95 | 198 | 0.0 | 12.0 | 0.00 | 0.00 | 0.00 | 37 | 1010.8 |
| 20260903212021 | 95 | 208 | 0.0 | 6.0 | 0.00 | 0.00 | 0.00 | 36 | 1010.9 |
| 20260903211508 | 94 | 60 | 0.0 | 5.0 | 0.00 | 0.00 | 0.00 | 38 | 1011.1 |
| 20260903210955 | 94 | 143 | 4.0 | 11.0 | 0.00 | 0.00 | 0.00 | 37 | 1011.1 |
| 20260903210442 | 95 | 158 | 5.0 | 10.0 | 0.00 | 0.00 | 0.00 | 37 | 1011.1 |
| 20260903205929 | 95 | 172 | 0.0 | 0.0 | 0.00 | 0.00 | 0.00 | 37 | 1011.1 |
| 20260903205416 | 94 | 172 | 0.0 | 11.0 | 0.00 | 0.00 | 0.00 | 37 | 1011.2 |
| 20260903204903 | 94 | 219 | 3.0 | 7.0 | 0.00 | 0.00 | 0.00 | 38 | 1011.3 |
| 20260903204350 | 94 | 217 | 0.0 | 11.0 | 0.00 | 0.00 | 0.00 | 38 | 1011.3 |
| 20260903203837 | 94 | 142 | 1.0 | 10.0 | 0.00 | 0.00 | 0.00 | 39 | 1011.3 |
| 20260903203324 | 94 | 121 | 4.0 | 8.0 | 0.00 | 0.00 | 0.00 | 38 | 1011.3 |
| 20260903202811 | 94 | 215 | 0.0 | 10.0 | 0.00 | 0.00 | 0.00 | 38 | 1011.4 |
| 20260903202258 | 94 | 149 | 0.0 | 16.0 | 0.00 | 0.00 | 0.00 | 38 | 1011.5 |
| 20260903201745 | 94 | 173 | 1.0 | 10.0 | 0.00 | 0.00 | 0.00 | 39 | 1011.5 |
| 20260903201232 | 94 | 145 | 0.0 | 11.0 | 0.00 | 0.00 | 0.00 | 38 | 1011.5 |
| 20260903200719 | 94 | 134 | 0.0 | 8.0 | 0.00 | 0.00 | 0.00 | 38 | 1011.5 |
| 20260903200206 | 94 | 200 | 0.0 | 10.0 | 0.00 | 0.00 | 0.00 | 38 | 1011.6 |
| 20260903195653 | 94 | 207 | 4.0 | 11.0 | 0.00 | 0.00 | 0.00 | 38 | 1011.6 |
| 20260903195140 | 94 | 202 | 0.0 | 13.0 | 0.00 | 0.00 | 0.00 | 40 | 1011.6 |
| 20260903194627 | 93 | 243 | 2.0 | 7.0 | 0.00 | 0.00 | 0.00 | 40 | 1011.7 |
| 20260903194114 | 93 | 231 | 0.0 | 14.0 | 0.00 | 0.00 | 0.00 | 39 | 1011.7 |
| 20260903193601 | 94 | 208 | 1.0 | 12.0 | 0.00 | 0.00 | 0.00 | 39 | 1011.8 |
| 20260903193048 | 94 | 167 | 0.0 | 9.0 | 0.00 | 0.00 | 0.00 | 39 | 1011.8 |
| 20260903192535 | 94 | 235 | 0.0 | 8.0 | 0.00 | 0.00 | 0.00 | 40 | 1011.8 |
| 20260903192022 | 93 | 194 | 0.0 | 11.0 | 0.00 | 0.00 | 0.00 | 40 | 1011.9 |
| 20260903191509 | 93 | 221 | 0.0 | 11.0 | 0.00 | 0.00 | 0.00 | 40 | 1011.8 |
| 20260903190956 | 93 | 169 | 3.0 | 12.0 | 0.00 | 0.00 | 0.00 | 40 | 1011.9 |